| time (UTC) | temp F | wind direction | speed MPH | gust MPH | rain 1hr in | rain 24hr in | rain mn in | humidity % | barometer mb |
| 20260901152839 | 80 | 355 | 4.0 | 11.0 | 0.00 | 0.00 | 0.00 | 67 | 1011.5 |
| 20260901152354 | 80 | 345 | 4.0 | 11.0 | 0.00 | 0.00 | 0.00 | 67 | 1011.6 |
| 20260901151404 | 80 | 347 | 4.0 | 10.0 | 0.00 | 0.00 | 0.00 | 65 | 1011.6 |
| 20260901150838 | 80 | 333 | 4.0 | 11.0 | 0.00 | 0.00 | 0.00 | 65 | 1011.6 |
| 20260901150346 | 81 | 329 | 4.0 | 11.0 | 0.00 | 0.00 | 0.00 | 65 | 1011.7 |
| 20260901145836 | 81 | 355 | 4.0 | 11.0 | 0.00 | 0.00 | 0.00 | 64 | 1011.6 |
| 20260901144839 | 82 | 20 | 3.0 | 9.0 | 0.00 | 0.00 | 0.00 | 63 | 1011.6 |
| 20260901143340 | 83 | 313 | 4.0 | 9.0 | 0.00 | 0.00 | 0.00 | 62 | 1011.7 |
| 20260901142838 | 83 | 12 | 3.0 | 10.0 | 0.00 | 0.00 | 0.00 | 62 | 1011.6 |
| 20260901142340 | 83 | 19 | 3.0 | 11.0 | 0.00 | 0.00 | 0.00 | 62 | 1011.6 |
| 20260901141358 | 83 | 344 | 4.0 | 10.0 | 0.00 | 0.00 | 0.00 | 61 | 1011.3 |
| 20260901140836 | 83 | 349 | 4.0 | 10.0 | 0.00 | 0.00 | 0.00 | 61 | 1011.4 |
| 20260901135836 | 84 | 5 | 4.0 | 11.0 | 0.00 | 0.00 | 0.00 | 61 | 1011.5 |
| 20260901135337 | 84 | 29 | 4.0 | 12.0 | 0.00 | 0.00 | 0.00 | 61 | 1011.4 |
| 20260901134402 | 84 | 281 | 4.0 | 10.0 | 0.00 | 0.00 | 0.00 | 60 | 1011.5 |
| 20260901133834 | 85 | 346 | 4.0 | 10.0 | 0.00 | 0.00 | 0.00 | 59 | 1011.5 |
| 20260901133348 | 85 | 347 | 4.0 | 10.0 | 0.00 | 0.00 | 0.00 | 59 | 1011.5 |
| 20260901132832 | 85 | 340 | 4.0 | 11.0 | 0.00 | 0.00 | 0.00 | 60 | 1011.6 |
| 20260901132403 | 85 | 345 | 4.0 | 11.0 | 0.00 | 0.00 | 0.00 | 60 | 1011.5 |
| 20260901131831 | 85 | 321 | 4.0 | 11.0 | 0.00 | 0.00 | 0.00 | 60 | 1011.5 |
| 20260901131341 | 85 | 306 | 5.0 | 11.0 | 0.00 | 0.00 | 0.00 | 59 | 1011.5 |
| 20260901130832 | 85 | 0 | 5.0 | 10.0 | 0.00 | 0.00 | 0.00 | 59 | 1011.4 |
| 20260901130344 | 85 | 5 | 5.0 | 12.0 | 0.00 | 0.00 | 0.00 | 58 | 1011.5 |
| 20260901125830 | 85 | 9 | 6.0 | 12.0 | 0.00 | 0.00 | 0.00 | 58 | 1011.3 |
| 20260901125336 | 85 | 346 | 5.0 | 12.0 | 0.00 | 0.00 | 0.00 | 58 | 1011.5 |
| 20260901124830 | 85 | 0 | 4.0 | 11.0 | 0.00 | 0.00 | 0.00 | 57 | 1011.4 |
| 20260901123831 | 85 | 296 | 5.0 | 12.0 | 0.00 | 0.00 | 0.00 | 56 | 1011.5 |
| 20260901122829 | 87 | 321 | 4.0 | 13.0 | 0.00 | 0.00 | 0.00 | 54 | 1011.5 |
| 20260901121821 | 87 | 26 | 4.0 | 11.0 | 0.00 | 0.00 | 0.00 | 53 | 1011.5 |
| 20260901121322 | 87 | 346 | 5.0 | 12.0 | 0.00 | 0.00 | 0.00 | 51 | 1011.6 |
| 20260901120820 | 87 | 269 | 5.0 | 13.0 | 0.00 | 0.00 | 0.00 | 50 | 1011.6 |
| 20260901120343 | 87 | 329 | 4.0 | 13.0 | 0.00 | 0.00 | 0.00 | 51 | 1011.5 |
| 20260901115818 | 87 | 293 | 4.0 | 12.0 | 0.00 | 0.00 | 0.00 | 49 | 1011.5 |
| 20260901115331 | 87 | 325 | 4.0 | 13.0 | 0.00 | 0.00 | 0.00 | 48 | 1011.6 |
| 20260901114819 | 87 | 242 | 4.0 | 13.0 | 0.00 | 0.00 | 0.00 | 47 | 1011.6 |
| 20260901114326 | 87 | 255 | 4.0 | 10.0 | 0.00 | 0.00 | 0.00 | 45 | 1011.6 |
| 20260901113817 | 88 | 338 | 3.0 | 10.0 | 0.00 | 0.00 | 0.00 | 44 | 1011.5 |
| 20260901113315 | 88 | 20 | 2.0 | 8.0 | 0.00 | 0.00 | 0.00 | 43 | 1011.5 |
| 20260901112816 | 88 | 31 | 2.0 | 10.0 | 0.00 | 0.00 | 0.00 | 43 | 1011.6 |
| 20260901112317 | 88 | 287 | 3.0 | 10.0 | 0.00 | 0.00 | 0.00 | 42 | 1011.6 |
| 20260901111317 | 88 | 11 | 3.0 | 10.0 | 0.00 | 0.00 | 0.00 | 43 | 1011.6 |
| 20260901110815 | 88 | 291 | 3.0 | 10.0 | 0.00 | 0.00 | 0.00 | 43 | 1011.7 |
| 20260901110314 | 87 | 245 | 2.0 | 9.0 | 0.00 | 0.00 | 0.00 | 43 | 1011.7 |
| 20260901105815 | 87 | 302 | 3.0 | 9.0 | 0.00 | 0.00 | 0.00 | 44 | 1011.7 |
| 20260901104814 | 86 | 40 | 1.0 | 5.0 | 0.00 | 0.00 | 0.00 | 45 | 1011.7 |
| 20260901104313 | 86 | 23 | 1.0 | 5.0 | 0.00 | 0.00 | 0.00 | 45 | 1011.7 |
| 20260901103815 | 85 | 119 | 1.0 | 4.0 | 0.00 | 0.00 | 0.00 | 47 | 1011.8 |
| 20260901103314 | 86 | 127 | 1.0 | 5.0 | 0.00 | 0.00 | 0.00 | 46 | 1011.8 |
| 20260901102814 | 86 | 134 | 1.0 | 5.0 | 0.00 | 0.00 | 0.00 | 47 | 1011.8 |
| 20260901102310 | 85 | 144 | 1.0 | 5.0 | 0.00 | 0.00 | 0.00 | 47 | 1011.8 |
| 20260901101807 | 85 | 121 | 1.0 | 8.0 | 0.00 | 0.00 | 0.00 | 46 | 1011.9 |
| 20260901101331 | 86 | 123 | 1.0 | 8.0 | 0.00 | 0.00 | 0.00 | 46 | 1011.8 |
| 20260901100804 | 86 | 120 | 1.0 | 4.0 | 0.00 | 0.00 | 0.00 | 47 | 1011.9 |
| 20260901100308 | 85 | 113 | 1.0 | 4.0 | 0.00 | 0.00 | 0.00 | 47 | 1012.0 |
| 20260901095806 | 85 | 120 | 2.0 | 5.0 | 0.00 | 0.00 | 0.00 | 47 | 1012.0 |
| 20260901095306 | 85 | 142 | 1.0 | 5.0 | 0.00 | 0.00 | 0.00 | 47 | 1012.0 |
| 20260901094308 | 85 | 275 | 1.0 | 4.0 | 0.00 | 0.00 | 0.00 | 45 | 1012.1 |
| 20260901093805 | 85 | 105 | 1.0 | 4.0 | 0.00 | 0.00 | 0.00 | 46 | 1012.1 |
| 20260901093308 | 85 | 32 | 1.0 | 4.0 | 0.00 | 0.00 | 0.00 | 46 | 1012.1 |
| 20260901092807 | 85 | 144 | 1.0 | 5.0 | 0.00 | 0.00 | 0.00 | 47 | 1012.0 |
| 20260901091804 | 84 | 123 | 1.0 | 6.0 | 0.00 | 0.00 | 0.00 | 46 | 1012.1 |
| 20260901091319 | 84 | 150 | 1.0 | 7.0 | 0.00 | 0.00 | 0.00 | 47 | 1012.1 |
| 20260901090803 | 84 | 141 | 2.0 | 7.0 | 0.00 | 0.00 | 0.00 | 48 | 1012.1 |
| 20260901090303 | 84 | 131 | 1.0 | 7.0 | 0.00 | 0.00 | 0.00 | 48 | 1012.2 |
| 20260901085802 | 84 | 165 | 1.0 | 7.0 | 0.00 | 0.00 | 0.00 | 49 | 1012.2 |
| 20260901085300 | 83 | 140 | 1.0 | 4.0 | 0.00 | 0.00 | 0.00 | 49 | 1012.3 |
| 20260901083801 | 83 | 128 | 1.0 | 7.0 | 0.00 | 0.00 | 0.00 | 48 | 1012.3 |
| 20260901082801 | 84 | 117 | 1.0 | 4.0 | 0.00 | 0.00 | 0.00 | 48 | 1012.4 |
| 20260901082250 | 84 | 129 | 1.0 | 4.0 | 0.00 | 0.00 | 0.00 | 45 | 1012.3 |
| 20260901081746 | 84 | 176 | 1.0 | 4.0 | 0.00 | 0.00 | 0.00 | 44 | 1012.3 |
| 20260901080746 | 83 | 213 | 2.0 | 5.0 | 0.00 | 0.00 | 0.00 | 45 | 1012.4 |
| 20260901080246 | 82 | 212 | 2.0 | 7.0 | 0.00 | 0.00 | 0.00 | 46 | 1012.5 |
| 20260901075746 | 82 | 289 | 2.0 | 7.0 | 0.00 | 0.00 | 0.00 | 45 | 1012.5 |
| 20260901075246 | 83 | 273 | 1.0 | 4.0 | 0.00 | 0.00 | 0.00 | 46 | 1012.5 |
| 20260901074741 | 82 | 258 | 0.0 | 3.0 | 0.00 | 0.00 | 0.00 | 48 | 1012.5 |
| 20260901074301 | 81 | 344 | 0.0 | 3.0 | 0.00 | 0.00 | 0.00 | 48 | 1012.6 |
| 20260901073232 | 81 | 151 | 0.0 | 3.0 | 0.00 | 0.00 | 0.00 | 49 | 1012.8 |
| 20260901072725 | 81 | 143 | 0.0 | 3.0 | 0.00 | 0.00 | 0.00 | 49 | 1012.8 |
| 20260901072229 | 81 | 180 | 1.0 | 4.0 | 0.00 | 0.00 | 0.00 | 49 | 1012.6 |
| 20260901071723 | 81 | 145 | 1.0 | 4.0 | 0.00 | 0.00 | 0.00 | 51 | 1012.6 |
| 20260901071228 | 80 | 192 | 1.0 | 4.0 | 0.00 | 0.00 | 0.00 | 52 | 1012.6 |
| 20260901070716 | 80 | 212 | 1.0 | 4.0 | 0.00 | 0.00 | 0.00 | 52 | 1012.6 |
| 20260901070228 | 80 | 288 | 1.0 | 4.0 | 0.00 | 0.00 | 0.00 | 52 | 1012.6 |
| 20260901065223 | 79 | 0 | 0.0 | 3.0 | 0.00 | 0.00 | 0.00 | 54 | 1012.6 |
| 20260901064708 | 79 | 257 | 0.0 | 3.0 | 0.00 | 0.00 | 0.00 | 54 | 1012.6 |
| 20260901064219 | 78 | 257 | 1.0 | 3.0 | 0.00 | 0.00 | 0.00 | 55 | 1012.5 |
| 20260901063219 | 78 | 257 | 1.0 | 4.0 | 0.00 | 0.00 | 0.00 | 57 | 1012.5 |
| 20260901062703 | 78 | 258 | 1.0 | 4.0 | 0.00 | 0.00 | 0.00 | 56 | 1012.5 |
| 20260901062216 | 78 | 284 | 1.0 | 5.0 | 0.00 | 0.00 | 0.00 | 56 | 1012.6 |
| 20260901061701 | 78 | 221 | 1.0 | 5.0 | 0.00 | 0.00 | 0.00 | 58 | 1012.5 |
| 20260901061227 | 78 | 200 | 1.0 | 5.0 | 0.00 | 0.00 | 0.00 | 59 | 1012.5 |
| 20260901060700 | 77 | 163 | 1.0 | 5.0 | 0.00 | 0.00 | 0.00 | 60 | 1012.5 |
| 20260901060231 | 77 | 205 | 1.0 | 5.0 | 0.00 | 0.00 | 0.00 | 60 | 1012.5 |
| 20260901055700 | 77 | 196 | 1.0 | 5.0 | 0.00 | 0.00 | 0.00 | 61 | 1012.5 |
| 20260901055215 | 77 | 146 | 1.0 | 5.0 | 0.00 | 0.00 | 0.00 | 62 | 1012.5 |
| 20260901054654 | 76 | 160 | 1.0 | 3.0 | 0.00 | 0.00 | 0.00 | 61 | 1012.4 |
| 20260901054208 | 76 | 144 | 1.0 | 4.0 | 0.00 | 0.00 | 0.00 | 62 | 1012.5 |
| 20260901053655 | 75 | 135 | 1.0 | 4.0 | 0.00 | 0.00 | 0.00 | 63 | 1012.3 |
| 20260901053207 | 74 | 135 | 1.0 | 4.0 | 0.00 | 0.00 | 0.00 | 66 | 1012.4 |
| 20260901052658 | 73 | 161 | 0.0 | 4.0 | 0.00 | 0.00 | 0.00 | 69 | 1012.3 |
| 20260901052206 | 72 | 145 | 0.0 | 3.0 | 0.00 | 0.00 | 0.00 | 73 | 1012.3 |
| 20260901051654 | 71 | 139 | 0.0 | 2.0 | 0.00 | 0.00 | 0.00 | 78 | 1012.3 |
| 20260901050653 | 69 | 138 | 1.0 | 3.0 | 0.00 | 0.00 | 0.00 | 85 | 1012.2 |
| 20260901050204 | 69 | 210 | 0.0 | 2.0 | 0.00 | 0.00 | 0.00 | 87 | 1012.2 |
| 20260901045653 | 69 | 271 | 0.0 | 2.0 | 0.00 | 0.00 | 0.00 | 88 | 1012.1 |
| 20260901045200 | 68 | 336 | 0.0 | 1.0 | 0.00 | 0.00 | 0.00 | 88 | 1012.1 |
| 20260901044652 | 67 | 336 | 0.0 | 1.0 | 0.00 | 0.00 | 0.00 | 89 | 1012.1 |
| 20260901044159 | 67 | 336 | 0.0 | 1.0 | 0.00 | 0.00 | 0.00 | 89 | 1012.1 |
| 20260901043156 | 67 | 336 | 0.0 | 1.0 | 0.00 | 0.00 | 0.00 | 89 | 1012.0 |
| 20260901041618 | 65 | 336 | 0.0 | 0.0 | 0.00 | 0.00 | 0.00 | 90 | 1012.0 |
| 20260901041150 | 65 | 336 | 0.0 | 1.0 | 0.00 | 0.00 | 0.00 | 90 | 1011.8 |
| 20260901040616 | 65 | 336 | 0.0 | 1.0 | 0.00 | 0.00 | 0.00 | 90 | 1011.9 |
| 20260901040147 | 65 | 336 | 0.0 | 1.0 | 0.00 | 0.00 | 0.00 | 90 | 1011.8 |
| 20260901035617 | 65 | 336 | 0.0 | 1.0 | 0.00 | 0.00 | 0.00 | 90 | 1011.8 |
| 20260901035146 | 65 | 336 | 0.0 | 0.0 | 0.00 | 0.00 | 0.00 | 90 | 1011.8 |
| 20260901034617 | 65 | 336 | 0.0 | 0.0 | 0.00 | 0.00 | 0.00 | 90 | 1011.7 |
| 20260901034144 | 65 | 336 | 0.0 | 0.0 | 0.00 | 0.00 | 0.00 | 90 | 1011.7 |
| 20260901033617 | 65 | 336 | 0.0 | 1.0 | 0.00 | 0.00 | 0.00 | 90 | 1011.7 |
| 20260901033140 | 65 | 336 | 0.0 | 2.0 | 0.00 | 0.00 | 0.00 | 89 | 1011.6 |
| 20260901032142 | 65 | 336 | 0.0 | 1.0 | 0.00 | 0.00 | 0.00 | 89 | 1011.6 |
| 20260901031617 | 65 | 336 | 0.0 | 0.0 | 0.00 | 0.00 | 0.00 | 89 | 1011.5 |
| 20260901031137 | 65 | 336 | 0.0 | 0.0 | 0.00 | 0.00 | 0.00 | 90 | 1011.5 |
| 20260901030602 | 66 | 336 | 0.0 | 1.0 | 0.00 | 0.00 | 0.00 | 90 | 1011.5 |
| 20260901025548 | 66 | 336 | 0.0 | 2.0 | 0.00 | 0.00 | 0.00 | 90 | 1011.5 |
| 20260901025134 | 66 | 336 | 0.0 | 2.0 | 0.00 | 0.00 | 0.00 | 90 | 1011.6 |
| 20260901024539 | 66 | 336 | 0.0 | 2.0 | 0.00 | 0.00 | 0.00 | 90 | 1011.6 |
| 20260901024130 | 66 | 336 | 0.0 | 1.0 | 0.00 | 0.00 | 0.00 | 90 | 1011.6 |
| 20260901023132 | 66 | 336 | 0.0 | 1.0 | 0.00 | 0.00 | 0.00 | 89 | 1011.5 |
| 20260901022131 | 66 | 336 | 0.0 | 1.0 | 0.00 | 0.00 | 0.00 | 89 | 1011.4 |
| 20260901021526 | 66 | 336 | 0.0 | 1.0 | 0.00 | 0.00 | 0.00 | 89 | 1011.4 |
| 20260901020122 | 66 | 336 | 0.0 | 2.0 | 0.00 | 0.00 | 0.00 | 89 | 1011.4 |
| 20260901015516 | 66 | 336 | 0.0 | 2.0 | 0.00 | 0.00 | 0.00 | 89 | 1011.4 |
| 20260901015119 | 66 | 336 | 0.0 | 1.0 | 0.00 | 0.00 | 0.00 | 89 | 1011.5 |
| 20260901014518 | 66 | 336 | 0.0 | 3.0 | 0.00 | 0.00 | 0.00 | 89 | 1011.4 |
| 20260901014120 | 66 | 336 | 1.0 | 3.0 | 0.00 | 0.00 | 0.00 | 89 | 1011.5 |
| 20260901013517 | 66 | 336 | 1.0 | 3.0 | 0.00 | 0.00 | 0.00 | 89 | 1011.5 |
| 20260901013119 | 66 | 336 | 1.0 | 3.0 | 0.00 | 0.00 | 0.00 | 89 | 1011.5 |
| 20260901012517 | 66 | 344 | 2.0 | 4.0 | 0.00 | 0.00 | 0.00 | 89 | 1011.5 |
| 20260901011518 | 67 | 355 | 1.0 | 3.0 | 0.00 | 0.00 | 0.00 | 89 | 1011.4 |
| 20260901010516 | 67 | 355 | 0.0 | 1.0 | 0.00 | 0.00 | 0.00 | 89 | 1011.4 |
| 20260901010110 | 67 | 355 | 0.0 | 1.0 | 0.00 | 0.00 | 0.00 | 89 | 1011.3 |
| 20260901005515 | 67 | 355 | 0.0 | 1.0 | 0.00 | 0.00 | 0.00 | 90 | 1011.4 |
| 20260901005104 | 67 | 355 | 0.0 | 1.0 | 0.00 | 0.00 | 0.00 | 90 | 1011.4 |
| 20260901004516 | 67 | 355 | 0.0 | 1.0 | 0.00 | 0.00 | 0.00 | 89 | 1011.4 |
| 20260901004106 | 67 | 355 | 0.0 | 1.0 | 0.00 | 0.00 | 0.00 | 89 | 1011.4 |
| 20260901003511 | 67 | 355 | 0.0 | 1.0 | 0.00 | 0.00 | 0.00 | 89 | 1011.5 |
| 20260901003107 | 67 | 355 | 0.0 | 0.0 | 0.00 | 0.00 | 0.00 | 89 | 1011.4 |
| 20260901002509 | 67 | 355 | 0.0 | 0.0 | 0.00 | 0.00 | 0.00 | 89 | 1011.4 |
| 20260901001451 | 67 | 355 | 0.0 | 1.0 | 0.00 | 0.00 | 0.00 | 89 | 1011.4 |
| 20260901000431 | 67 | 355 | 1.0 | 3.0 | 0.00 | 0.00 | 0.00 | 89 | 1011.4 |
| 20260901000055 | 68 | 355 | 1.0 | 3.0 | 0.00 | 0.00 | 0.00 | 89 | 1011.4 |
| 20260831235411 | 68 | 5 | 1.0 | 4.0 | 0.00 | 0.00 | 0.00 | 89 | 1011.4 |
| 20260831235055 | 68 | 5 | 1.0 | 4.0 | 0.00 | 0.00 | 0.00 | 89 | 1011.5 |
| 20260831234410 | 68 | 0 | 0.0 | 3.0 | 0.00 | 0.00 | 0.00 | 89 | 1011.5 |
| 20260831233406 | 68 | 0 | 0.0 | 0.0 | 0.00 | 0.00 | 0.00 | 89 | 1011.4 |
| 20260831233050 | 68 | 0 | 0.0 | 0.0 | 0.00 | 0.00 | 0.00 | 89 | 1011.4 |
| 20260831232410 | 68 | 0 | 0.0 | 0.0 | 0.00 | 0.00 | 0.00 | 89 | 1011.5 |
| 20260831232047 | 68 | 0 | 0.0 | 0.0 | 0.00 | 0.00 | 0.00 | 89 | 1011.5 |
| 20260831231402 | 68 | 0 | 0.0 | 0.0 | 0.00 | 0.00 | 0.00 | 89 | 1011.6 |
| 20260831231046 | 68 | 0 | 0.0 | 0.0 | 0.00 | 0.00 | 0.00 | 89 | 1011.6 |
| 20260831230041 | 69 | 0 | 0.0 | 0.0 | 0.00 | 0.00 | 0.00 | 88 | 1011.6 |
| 20260831225350 | 69 | 0 | 0.0 | 0.0 | 0.00 | 0.00 | 0.00 | 88 | 1011.6 |
| 20260831225039 | 69 | 0 | 0.0 | 0.0 | 0.00 | 0.00 | 0.00 | 88 | 1011.5 |
| 20260831224342 | 69 | 0 | 0.0 | 0.0 | 0.00 | 0.00 | 0.00 | 88 | 1011.6 |
| 20260831224041 | 69 | 0 | 0.0 | 0.0 | 0.00 | 0.00 | 0.00 | 88 | 1011.7 |
| 20260831223337 | 69 | 0 | 0.0 | 0.0 | 0.00 | 0.00 | 0.00 | 88 | 1011.7 |
| 20260831223035 | 69 | 0 | 0.0 | 0.0 | 0.00 | 0.00 | 0.00 | 88 | 1011.7 |
| 20260831222330 | 69 | 0 | 0.0 | 0.0 | 0.00 | 0.00 | 0.00 | 88 | 1011.7 |
| 20260831222036 | 69 | 0 | 0.0 | 0.0 | 0.00 | 0.00 | 0.00 | 88 | 1011.8 |
| 20260831221331 | 69 | 0 | 0.0 | 0.0 | 0.00 | 0.00 | 0.00 | 88 | 1011.8 |
| 20260831221033 | 69 | 0 | 0.0 | 0.0 | 0.00 | 0.00 | 0.00 | 88 | 1011.8 |
| 20260831220318 | 69 | 0 | 0.0 | 0.0 | 0.00 | 0.00 | 0.00 | 88 | 1011.8 |
| 20260831220029 | 69 | 0 | 0.0 | 0.0 | 0.00 | 0.00 | 0.00 | 88 | 1011.8 |
| 20260831215318 | 69 | 0 | 0.0 | 0.0 | 0.00 | 0.00 | 0.00 | 87 | 1011.9 |
| 20260831214310 | 70 | 0 | 0.0 | 0.0 | 0.00 | 0.00 | 0.00 | 87 | 1011.9 |
| 20260831213305 | 70 | 0 | 0.0 | 2.0 | 0.00 | 0.00 | 0.00 | 87 | 1012.0 |
| 20260831212308 | 70 | 0 | 0.0 | 2.0 | 0.00 | 0.00 | 0.00 | 87 | 1011.9 |
| 20260831212020 | 70 | 0 | 1.0 | 4.0 | 0.00 | 0.00 | 0.00 | 87 | 1011.9 |
| 20260831211257 | 70 | 0 | 1.0 | 5.0 | 0.00 | 0.00 | 0.00 | 87 | 1011.9 |
| 20260831211044 | 70 | 0 | 1.0 | 5.0 | 0.00 | 0.00 | 0.00 | 87 | 1012.0 |
| 20260831210251 | 70 | 338 | 0.0 | 3.0 | 0.00 | 0.00 | 0.00 | 87 | 1012.0 |
| 20260831210015 | 70 | 340 | 1.0 | 5.0 | 0.00 | 0.00 | 0.00 | 87 | 1012.0 |
| 20260831205250 | 70 | 355 | 1.0 | 5.0 | 0.00 | 0.00 | 0.00 | 87 | 1011.9 |
| 20260831205009 | 70 | 10 | 1.0 | 4.0 | 0.00 | 0.00 | 0.00 | 86 | 1011.9 |
| 20260831204245 | 70 | 344 | 0.0 | 3.0 | 0.00 | 0.00 | 0.00 | 86 | 1012.0 |
| 20260831204012 | 71 | 344 | 1.0 | 3.0 | 0.00 | 0.00 | 0.00 | 86 | 1011.9 |
| 20260831203248 | 71 | 344 | 1.0 | 4.0 | 0.00 | 0.00 | 0.00 | 86 | 1012.0 |
| 20260831203011 | 71 | 321 | 1.0 | 4.0 | 0.00 | 0.00 | 0.00 | 86 | 1012.0 |
| 20260831202248 | 71 | 323 | 1.0 | 3.0 | 0.00 | 0.00 | 0.00 | 86 | 1012.0 |
| 20260831202010 | 71 | 330 | 1.0 | 4.0 | 0.00 | 0.00 | 0.00 | 86 | 1012.0 |
| 20260831201252 | 71 | 336 | 2.0 | 6.0 | 0.00 | 0.00 | 0.00 | 85 | 1012.1 |
| 20260831201007 | 71 | 335 | 2.0 | 6.0 | 0.00 | 0.00 | 0.00 | 85 | 1012.0 |
| 20260831200003 | 71 | 322 | 1.0 | 4.0 | 0.00 | 0.00 | 0.00 | 85 | 1012.1 |
| 20260831194232 | 71 | 11 | 1.0 | 4.0 | 0.00 | 0.00 | 0.00 | 85 | 1012.1 |
| 20260831193957 | 71 | 324 | 2.0 | 5.0 | 0.00 | 0.00 | 0.00 | 84 | 1012.0 |
| 20260831193246 | 71 | 298 | 2.0 | 6.0 | 0.00 | 0.00 | 0.00 | 84 | 1012.0 |
| 20260831192223 | 71 | 349 | 2.0 | 8.0 | 0.00 | 0.00 | 0.00 | 84 | 1012.1 |
| 20260831191956 | 71 | 307 | 2.0 | 8.0 | 0.00 | 0.00 | 0.00 | 84 | 1012.2 |
| 20260831191226 | 71 | 342 | 2.0 | 8.0 | 0.00 | 0.00 | 0.00 | 83 | 1012.2 |
| 20260831191008 | 71 | 317 | 2.0 | 8.0 | 0.00 | 0.00 | 0.00 | 83 | 1012.2 |
| 20260831190224 | 71 | 321 | 2.0 | 8.0 | 0.00 | 0.00 | 0.00 | 83 | 1012.2 |
| 20260831185226 | 72 | 9 | 3.0 | 7.0 | 0.00 | 0.00 | 0.00 | 83 | 1012.2 |
| 20260831184950 | 72 | 9 | 2.0 | 6.0 | 0.00 | 0.00 | 0.00 | 83 | 1012.2 |
| 20260831184223 | 72 | 313 | 2.0 | 6.0 | 0.00 | 0.00 | 0.00 | 82 | 1012.1 |
| 20260831183947 | 72 | 355 | 2.0 | 6.0 | 0.00 | 0.00 | 0.00 | 82 | 1012.2 |
| 20260831183223 | 72 | 349 | 3.0 | 8.0 | 0.00 | 0.00 | 0.00 | 82 | 1012.2 |
| 20260831182949 | 72 | 307 | 3.0 | 8.0 | 0.00 | 0.00 | 0.00 | 82 | 1012.4 |
| 20260831182251 | 72 | 322 | 3.0 | 7.0 | 0.00 | 0.00 | 0.00 | 82 | 1012.4 |
| 20260831181944 | 72 | 321 | 3.0 | 9.0 | 0.00 | 0.00 | 0.00 | 81 | 1012.3 |
| 20260831181222 | 72 | 336 | 3.0 | 9.0 | 0.00 | 0.00 | 0.00 | 81 | 1012.3 |
| 20260831180943 | 72 | 288 | 3.0 | 9.0 | 0.00 | 0.00 | 0.00 | 81 | 1012.3 |
| 20260831180220 | 72 | 273 | 2.0 | 9.0 | 0.00 | 0.00 | 0.00 | 81 | 1012.3 |
| 20260831175221 | 72 | 309 | 2.0 | 5.0 | 0.00 | 0.00 | 0.00 | 80 | 1012.2 |
| 20260831173938 | 73 | 342 | 2.0 | 8.0 | 0.00 | 0.00 | 0.00 | 80 | 1012.2 |
| 20260831173223 | 73 | 310 | 4.0 | 10.0 | 0.00 | 0.00 | 0.00 | 80 | 1012.2 |
| 20260831172939 | 73 | 322 | 4.0 | 10.0 | 0.00 | 0.00 | 0.00 | 79 | 1012.1 |
| 20260831172219 | 73 | 323 | 3.0 | 9.0 | 0.00 | 0.00 | 0.00 | 79 | 1012.1 |
| 20260831171941 | 73 | 274 | 3.0 | 9.0 | 0.00 | 0.00 | 0.00 | 79 | 1012.1 |
| 20260831170934 | 73 | 41 | 2.0 | 9.0 | 0.00 | 0.00 | 0.00 | 79 | 1012.0 |
| 20260831165933 | 73 | 326 | 3.0 | 9.0 | 0.00 | 0.00 | 0.00 | 78 | 1012.0 |
| 20260831165219 | 74 | 300 | 3.0 | 10.0 | 0.00 | 0.00 | 0.00 | 78 | 1011.9 |
| 20260831164942 | 74 | 344 | 4.0 | 10.0 | 0.00 | 0.00 | 0.00 | 78 | 1011.8 |
| 20260831164218 | 74 | 344 | 4.0 | 9.0 | 0.00 | 0.00 | 0.00 | 78 | 1011.8 |
| 20260831163221 | 74 | 0 | 4.0 | 10.0 | 0.00 | 0.00 | 0.00 | 78 | 1011.7 |
| 20260831162928 | 74 | 304 | 5.0 | 10.0 | 0.00 | 0.00 | 0.00 | 78 | 1011.7 |
| 20260831162220 | 74 | 21 | 5.0 | 9.0 | 0.00 | 0.00 | 0.00 | 77 | 1011.7 |
| 20260831161929 | 74 | 340 | 4.0 | 10.0 | 0.00 | 0.00 | 0.00 | 77 | 1011.7 |
| 20260831161222 | 74 | 297 | 4.0 | 11.0 | 0.00 | 0.00 | 0.00 | 77 | 1011.7 |
| 20260831160927 | 75 | 317 | 4.0 | 11.0 | 0.00 | 0.00 | 0.00 | 77 | 1011.6 |
| 20260831160217 | 75 | 298 | 4.0 | 11.0 | 0.00 | 0.00 | 0.00 | 76 | 1011.6 |
| 20260831155921 | 75 | 340 | 5.0 | 12.0 | 0.00 | 0.00 | 0.00 | 76 | 1011.5 |
| 20260831155217 | 75 | 333 | 5.0 | 12.0 | 0.00 | 0.00 | 0.00 | 76 | 1011.5 |
| 20260831154923 | 76 | 344 | 5.0 | 12.0 | 0.00 | 0.00 | 0.00 | 75 | 1011.5 |
| 20260831154217 | 76 | 274 | 4.0 | 12.0 | 0.00 | 0.00 | 0.00 | 74 | 1011.6 |